{"data":{"norad_id":66358,"intl_designator":"2025-254L","name":"STARLINK-35807","alt_names":[],"object_type":"PAYLOAD","status":"ACTIVE","operator":null,"country":"US","launch_date":"2025-11-06","launch_site_code":"AFWTR","launch_vehicle":null,"mission":null,"orbit_class":"UNKNOWN","rcs_meters":null,"size_class":null,"mass_kg":null,"dimensions":null,"purposes":["comms"],"wikipedia_slug":null,"has_3d_model":false,"image_url":null,"decayed_at":null,"tle_current":{"epoch":"2026-05-25T05:09:56.227104Z","epoch_age_seconds":50419,"freshness":"FRESH","line1":"1 66358U 25254L   26145.21523411  .00024656  00000+0  80366-3 0  9991","line2":"2 66358  53.1571 236.8896 0000899  74.0417 286.0683 15.31700743 30695","mean_motion":15.31700743,"eccentricity":8.99e-5,"inclination_deg":53.1571,"raan_deg":236.8896,"arg_perigee_deg":74.0417,"mean_anomaly_deg":286.0683,"bstar":0.00080366,"rev_number":3069,"period_min":94.013142357012,"perigee_km":470.12206653945,"apogee_km":471.35349422496,"semimajor_km":6848.8747803822,"source":"CELESTRAK","updated_at":"2026-05-25T13:38:21.175980Z"}}}